Flag Weather past 2 weeks in Ingelheim am Rhein, Rhineland-Palatinate, Germany

Now
55 °F

Fog.


Feels Like: 55 °F
Forecast: 49 / 62 °F
Wind: No wind

Location: Wiesbaden Airport

Current Time: Oct 30, 2014 at 5:16:10 PM

Latest Report: Oct 30, 2014 at 3:58 PM


Visibility: 2 mi

Pressure: 30.28 "Hg

Humidity: 94%

Dew point: 54 °F

Location of Ingelheim am RheinLocation

Historic Weather in Ingelheim am Rhein — Graph

°F

Ingelheim am Rhein temperature yesterday

Maximum temperature yesterday: 52 °F (at 1:58 PM)
Minimum temperature yesterday: 45 °F (at 12:58 AM)
Average temperature yesterday: 48 °F

Past Weeks' High & Low Weather Summary

 TemperatureHumidityPressure
High72 °F (Oct 19, 3:58 PM)100% (Oct 16, 12:58 AM)30.36 "Hg (Oct 16, 12:58 AM)
Low39 °F (Oct 24, 3:58 AM)64% (Oct 15, 4:58 PM)29.58 "Hg (Oct 21, 5:58 PM)
Average52 °F90%30.10 "Hg
* Reported Oct 15 4:58 PM — Oct 30 3:58 PM, Ingelheim am Rhein, Weather by CustomWeather, © 2014

Note: Actual official high and low records may vary slightly from our data, if they occured in-between our weather recording intervals... More about our weather records

Advertising

Ingelheim am Rhein weather history for previous 24 hours

 ConditionsComfort  
Time TempWeatherWind HumidityBarometerVisibility
3:58 PM
Oct 30
55 °FFog.No wind94%30.28 "Hg2 mi
2:59 PM55 °FFog.1 mph94%30.26 "Hg2 mi
2:58 PM55 °FFog.No wind92%30.28 "Hg2 mi
1:58 PM55 °FFog.No wind88%30.28 "Hg2 mi
12:58 PM54 °FFog.1 mph94%30.29 "Hg1 mi
12:02 PM54 °FFog.3 mph94%30.27 "Hg2 mi
11:04 AM52 °FFog.2 mph100%30.27 "Hg2 mi
10:58 AM52 °FFog.1 mph95%30.28 "Hg2 mi
9:58 AM52 °FFog.1 mph94%30.27 "Hg1 mi
8:58 AM50 °FFog.3 mph100%30.26 "Hg1 mi
7:59 AM50 °FFog.2 mph100%30.24 "Hg1 mi
7:58 AM50 °FFog.2 mph100%30.24 "Hg1 mi
6:58 AM50 °FFog.No wind100%30.22 "Hg2 mi
5:58 AM48 °FFog.2 mph100%30.21 "Hg2 mi
4:58 AM50 °FFog.No wind100%30.20 "Hg2 mi
3:58 AM49 °FFog.No wind99%30.20 "Hg3 mi
2:58 AM48 °FFog.No wind100%30.20 "Hg3 mi
2:02 AM48 °FFog.2 mph100%30.18 "Hg2 mi
1:58 AM49 °FFog.2 mph98%30.19 "Hg3 mi
12:58 AM48 °FFog.No wind100%30.18 "Hg3 mi
12:04 AM48 °FFog.2 mph100%30.16 "Hg2 mi
11:58 PM
Oct 29
48 °FFog.2 mph100%30.17 "Hg3 mi
10:58 PM48 °FFog.2 mph98%30.17 "Hg3 mi
9:58 PM48 °FFog.2 mph100%30.16 "Hg3 mi
8:58 PM48 °FFog.2 mph100%30.15 "Hg3 mi
7:58 PM48 °FLight rain. Fog.1 mph93%30.14 "Hg2 mi
6:59 PM50 °FLight rain. Fog.No wind88%30.12 "Hg3 mi
6:58 PM50 °FMostly cloudy.1 mph82%30.12 "Hg3 mi
5:55 PM50 °FMostly cloudy.2 mph82%30.12 "Hg6 mi
Weather by CustomWeather, © 2014

See weather overviewHow to use our weather pages